EXO-0

导读 | 星芒AI

EXO-0 卫星是中国计划发射的一颗用于探测太阳系外行星的天文卫星。其主要任务是通过高精度观测,寻找类地行星,并研究其大气成分与环境特征,以评估其是否具备生命存在的条件。该卫星将搭载先进的光学望远镜和光谱分析仪器,具备高灵敏度和高分辨率,能够捕捉遥远天体的微弱信号。EXO-0 的发射将推动中国在系外行星探测领域的研究进展,提升对宇宙生命起源的理解。

基本信息
目录编号:
59175
目录名称:
EXO-0
国际标识:
2023-174DK
轨道中心:
EARTH
卫星名称:
EXO-0
卫星全名:
--
卫星状态:
在轨 (已飞行718 天)
发射日期:
2023-11-11 UTC
国别 :
法国 (FR)
星等 :
--
轨道信息
数据来源 国际轨道数据
星历时间: 2025-10-28T12:18:27+0800
1天前
查看轨道信息
半长轴: 6855.541km
偏心率: 0.000856
轨道倾角: 97.405°
近地点辐角 276.554°
升交点赤经 16.703°
平近点角 83.473°
近地点: 471.537km
远地点: 483.275km
周期: 94.150分钟
每日圈数: 15.294673
详细信息
使用方式:
暂无
2D轨道图
3D轨道图
轨道高度分析图
轨道倾角分析图
轨道综合分析图
查看轨道综合分析图